Theta_e
314 311 312 313 314 316 318 319 320 320 319 319 320 320 320 320 320 320 320 321 320 321 321 321 322 322 321 334 345 347 347 344 344 344 343 347 346 345 343 342 348 348 348 349
318 316 313 313 314 315 316 318 319 318 318 317 317 318 318 318 319 321 321 321 323 322 322 320 320 321 322 328 339 347 348 348 344 344 342 348 346 344 341 344 348 351 349 350
319 318 318 316 314 315 316 316 316 317 317 316 316 317 317 317 319 321 322 322 323 323 321 321 320 320 321 324 331 341 348 349 348 341 343 349 349 347 346 349 351 349 351 352
316 315 316 316 318 318 318 316 317 319 318 315 316 318 317 316 317 320 321 321 321 323 324 322 321 320 320 320 323 336 346 349 348 343 343 344 346 350 347 345 351 351 351 351
317 317 317 317 318 319 321 319 320 321 320 320 320 315 315 316 318 318 318 322 322 321 324 322 321 321 320 320 321 332 348 350 350 348 341 345 349 350 349 343 349 348 350 351
317 316 316 316 317 317 318 319 320 321 320 322 320 318 319 315 316 318 318 321 322 322 321 322 322 321 322 321 322 327 348 351 351 348 346 343 340 352 343 343 346 350 351 348
311 312 313 316 317 316 318 320 323 324 324 326 320 320 319 315 315 317 318 319 322 320 320 322 322 322 321 320 324 327 346 352 351 351 352 353 352 353 348 352 353 350 346 346
313 313 313 315 316 315 316 317 323 324 325 320 319 322 319 318 316 318 319 320 322 324 322 322 322 322 321 321 322 339 344 353 353 352 354 355 351 351 351 347 342 346 344 345
313 317 313 314 315 317 318 318 318 321 320 322 322 320 318 317 318 317 317 319 321 322 323 323 324 323 321 321 321 331 348 351 354 354 354 355 351 348 344 345 350 350 346 344
312 313 314 315 316 316 316 318 318 314 321 323 320 320 319 318 320 320 322 321 322 321 320 320 322 322 323 322 321 323 343 342 344 347 350 352 349 348 350 350 347 342 344 344
313 315 315 314 317 317 318 319 318 316 319 319 318 316 320 318 323 323 322 323 326 328 325 319 320 322 323 322 322 324 343 352 342 344 349 350 351 351 350 345 346 343 346 347
313 312 315 315 314 317 319 316 319 318 319 320 318 318 321 323 324 324 323 324 330 331 324 323 320 321 321 321 325 331 341 349 343 345 347 346 349 348 346 347 347 346 345 342
312 314 312 308 317 315 316 315 316 318 319 318 319 318 320 320 320 321 321 322 332 341 333 328 324 321 320 324 329 334 338 339 341 342 339 345 346 347 347 344 344 342 340 334
313 312 312 313 313 314 315 314 316 317 321 321 321 320 320 320 321 321 323 323 322 341 339 332 326 327 326 329 333 343 343 336 337 340 341 346 346 345 342 341 337 337 332 329
311 310 311 312 313 313 313 314 313 316 318 322 320 321 323 324 323 320 320 322 320 332 342 341 343 342 341 341 342 341 343 343 341 339 345 344 342 340 339 333 332 330 327 324
310 314 310 310 312 313 314 313 312 314 317 317 318 320 323 324 324 323 324 320 325 336 339 340 339 339 339 339 335 336 341 343 342 341 341 337 335 335 330 330 326 322 318 317
307 306 310 311 312 312 314 320 321 321 315 317 320 320 326 325 326 326 325 327 326 326 331 334 334 335 332 331 332 337 338 339 337 337 331 328 329 327 321 320 317 315 312 309
307 307 310 312 309 312 319 316 317 320 318 317 319 324 325 325 324 323 323 323 324 325 324 328 328 327 324 325 332 330 331 330 329 326 325 324 324 319 316 313 311 308 305 305
307 309 312 313 310 313 318 316 316 319 323 322 324 324 323 321 322 321 318 319 320 320 320 322 322 321 319 320 320 324 323 324 323 321 318 317 316 315 311 307 304 305 306 307
311 310 313 314 315 317 317 312 311 316 328 321 324 323 322 320 320 320 317 318 317 318 320 317 318 320 317 317 316 321 319 318 316 315 314 313 311 307 304 304 305 307 308 309
314 312 314 315 315 316 311 310 313 325 324 313 316 323 319 319 317 315 316 316 315 314 314 314 314 315 318 315 313 316 315 313 312 311 309 306 303 303 305 305 307 308 309 308
315 315 316 315 316 317 308 311 317 313 310 313 319 317 316 315 314 313 313 313 314 312 313 315 313 311 313 316 310 309 307 305 305 304 303 304 305 305 306 307 308 308 307 308
314 313 313 312 312 308 309 309 309 310 312 318 317 316 315 314 313 312 311 311 311 311 311 311 312 309 309 308 306 303 303 303 303 304 305 305 305 305 307 308 307 307 306 306
311 310 312 311 309 309 309 309 309 313 319 317 316 315 314 313 312 312 311 309 308 307 306 305 304 304 304 304 304 304 304 304 304 305 305 304 304 307 307 307 306 306 305 304
308 309 311 310 309 309 309 308 309 313 317 315 314 315 313 313 311 311 310 309 309 309 309 309 309 308 307 308 308 307 306 304 304 304 305 304 304 306 305 305 305 305 304 304
308 309 309 309 309 310 309 309 310 310 311 313 313 312 312 313 311 311 310 310 310 309 309 308 307 306 304 303 302 302 303 303 304 304 303 304 304 304 305 305 304 303 303 303
Wind_Speed
6 5 14 6 10 11 13 14 14 11 8 11 19 25 18 13 15 19 25 34 27 26 28 28 21 23 20 31 39 48 45 37 33 37 34 32 34 29 25 24 22 20 18 17
3 11 9 11 12 12 16 20 23 20 16 15 20 21 13 8 8 23 25 30 37 37 35 34 30 26 22 25 35 47 48 44 44 38 37 35 33 32 26 23 25 22 23 21
13 14 8 14 18 17 18 18 18 19 17 18 18 20 13 8 8 20 32 35 43 44 37 34 35 31 29 28 34 40 44 45 43 37 43 39 33 30 30 30 28 31 25 23
12 4 10 4 11 15 16 17 17 14 9 11 5 16 16 6 9 9 16 31 36 47 47 41 37 37 37 37 33 38 46 46 47 44 41 40 35 40 40 37 32 28 25 24
15 18 14 9 9 4 12 13 5 9 2 2 8 3 5 6 7 9 10 18 34 43 51 51 45 43 38 40 40 39 48 49 48 48 40 37 37 42 46 36 33 31 30 27
18 17 7 9 9 10 19 13 6 6 1 6 11 5 14 9 8 8 9 20 24 43 44 50 41 37 40 46 41 39 53 53 52 44 44 46 40 38 36 38 36 31 29 21
10 16 18 12 10 13 8 4 2 4 6 5 9 5 12 8 13 14 18 22 27 32 40 45 39 35 34 43 41 42 49 54 52 48 48 41 35 33 34 31 32 24 22 22
7 5 9 2 14 8 7 10 5 4 4 5 5 6 11 19 13 15 30 32 29 28 36 46 41 45 42 42 38 47 50 53 53 46 47 42 33 36 34 30 25 22 23 24
4 4 6 13 9 7 4 5 12 9 9 1 4 6 10 17 14 15 15 24 24 28 29 38 45 47 46 46 42 43 51 53 54 50 46 40 36 36 33 30 25 23 24 20
3 6 3 13 6 6 6 4 3 2 6 5 5 6 10 7 4 6 5 9 19 21 28 27 38 46 49 49 45 37 54 54 53 49 43 37 34 34 31 27 24 22 20 22
7 4 3 7 4 2 3 2 4 4 4 4 3 7 1 6 3 7 8 18 27 30 30 36 36 40 52 52 44 40 51 56 50 44 41 37 35 31 28 26 25 22 21 19
5 3 4 6 5 3 3 3 1 3 5 4 4 9 1 1 2 4 9 20 33 29 31 34 39 41 52 53 46 47 51 50 48 43 38 36 33 31 29 29 25 24 23 22
5 1 3 6 3 3 4 1 2 6 4 8 5 7 1 5 6 8 8 20 18 17 21 29 32 40 46 46 46 42 45 46 43 41 37 36 33 32 30 28 28 26 25 22
5 3 4 4 5 7 9 10 7 5 4 7 14 9 11 8 7 10 21 16 24 6 19 22 32 35 37 43 45 42 43 47 46 43 39 36 34 36 31 30 31 28 25 22
1 4 3 5 12 16 17 17 15 10 12 7 6 13 8 3 4 4 21 23 29 22 19 33 38 40 41 44 45 44 50 50 47 42 41 39 38 36 33 33 30 26 22 18
4 3 3 6 13 9 9 13 17 16 17 14 12 16 5 5 2 5 8 12 32 18 12 24 34 42 47 48 47 52 55 52 48 45 42 44 41 35 33 29 26 22 19 15
4 2 3 5 8 13 5 0 13 11 14 19 9 9 4 4 3 2 11 14 29 30 24 27 32 40 38 46 52 56 54 51 49 48 47 42 37 34 30 26 22 18 14 11
6 1 1 5 6 3 6 13 14 15 9 10 5 5 9 8 14 20 20 30 31 29 35 37 38 35 35 44 52 52 52 51 50 47 44 39 34 31 25 21 17 14 11 8
16 5 3 2 2 8 5 9 10 9 5 9 8 11 13 22 26 18 25 34 37 40 36 39 41 39 36 46 49 54 53 51 47 43 39 34 30 26 20 17 14 11 9 8
13 12 3 1 3 4 4 21 27 12 0 15 7 12 13 15 9 3 19 32 38 39 45 46 45 46 46 48 46 53 50 46 42 37 33 27 22 19 16 13 11 10 8 7
2 2 4 3 4 5 12 25 22 1 4 19 13 10 12 9 12 18 30 33 36 39 42 42 41 39 41 45 44 50 45 40 35 30 26 21 17 15 12 12 10 9 9 10
4 3 1 2 2 4 22 15 5 6 23 14 6 28 30 31 28 32 34 34 35 38 39 40 42 42 41 37 33 40 37 31 27 25 23 19 16 13 11 11 12 12 13 11
3 4 3 3 2 11 17 12 20 20 22 5 30 30 36 34 32 35 35 35 36 38 40 39 40 36 32 32 30 32 28 25 23 22 20 16 14 13 14 16 18 17 14 12
7 9 3 2 5 10 19 21 22 18 21 26 36 35 36 36 36 36 36 36 37 40 41 38 40 39 35 30 28 26 22 20 17 17 15 13 12 15 16 16 15 14 13 12
4 8 5 2 6 1 21 23 23 24 26 32 31 37 38 40 33 37 36 36 37 35 32 31 29 31 28 24 22 17 15 12 13 12 11 11 12 13 15 16 15 13 13 10
10 4 5 5 14 8 16 23 26 36 30 31 35 31 33 39 36 37 34 33 32 29 27 26 25 24 21 17 15 12 9 7 8 11 11 10 12 13 12 12 16 16 13 11
Wind_Direction
232 202 231 200 226 255 267 274 272 274 262 228 250 265 263 254 231 241 230 231 230 232 228 221 214 209 203 195 206 206 204 210 206 205 205 202 208 209 208 216 223 220 220 224
261 239 234 211 233 237 243 254 261 275 267 264 265 268 269 257 237 236 233 231 241 243 241 233 228 233 216 203 202 203 209 219 211 213 214 213 212 213 216 215 227 231 232 230
216 227 208 221 233 240 242 242 258 255 263 259 271 275 262 246 254 259 241 233 233 240 228 227 224 220 231 220 207 205 213 211 208 215 211 211 218 217 212 211 221 231 233 237
227 261 243 275 290 259 252 261 272 288 256 249 237 260 257 227 230 235 242 232 228 236 240 230 226 223 228 235 230 212 203 208 216 216 214 219 224 217 218 217 214 223 234 238
265 282 262 257 240 244 268 286 322 306 305 195 281 249 268 191 244 240 230 240 235 234 232 231 233 234 229 230 227 215 207 211 216 216 218 219 223 225 223 222 219 227 232 238
269 273 252 241 247 224 252 259 331 280 187 255 250 189 261 238 216 261 264 270 270 230 230 226 227 226 228 228 224 216 209 209 213 210 214 220 221 224 227 227 223 218 220 226
277 262 262 232 256 274 228 105 284 225 214 220 226 256 252 258 244 221 245 251 249 230 225 221 227 222 220 216 215 213 210 206 206 208 213 216 216 217 215 214 212 209 218 215
251 241 217 223 211 184 190 169 189 248 183 240 230 204 248 251 262 247 239 249 252 239 229 223 232 222 217 212 215 211 210 205 204 207 212 208 214 216 215 218 216 207 219 222
289 250 340 328 244 161 180 167 196 209 260 247 235 280 283 263 263 263 255 250 254 241 231 230 234 230 221 220 217 216 209 205 202 204 210 206 207 210 212 212 214 220 218 209
229 286 350 275 293 225 158 158 171 313 188 208 241 242 241 303 253 299 284 296 270 262 260 243 235 228 223 226 216 217 209 207 205 209 209 207 201 205 210 211 217 204 197 204
263 202 246 304 245 217 139 207 87 115 165 185 264 254 310 275 15 303 299 304 302 287 269 254 241 235 227 220 212 205 203 202 203 202 200 197 198 195 197 203 199 193 195 198
297 171 252 253 320 49 93 79 30 178 214 244 170 249 271 7 342 275 305 320 303 266 259 258 243 228 217 209 201 199 196 197 197 194 190 190 189 187 189 186 186 186 185 185
329 296 314 350 240 37 43 337 171 269 250 215 206 264 234 6 340 326 317 332 309 210 231 245 235 203 200 189 186 178 180 188 186 184 183 180 182 179 177 186 177 181 180 176
268 225 196 229 250 286 278 265 227 231 273 233 235 275 294 296 323 339 328 337 317 155 163 161 166 163 165 168 170 158 163 176 174 175 173 170 173 170 178 178 170 171 174 176
102 244 246 263 269 269 270 273 268 221 233 246 238 229 261 227 268 343 333 313 288 268 129 130 129 133 138 141 150 153 158 164 165 165 166 166 164 165 170 163 166 171 173 172
356 278 299 268 271 272 276 275 270 242 230 241 250 275 216 198 192 60 352 258 258 107 88 114 126 126 136 144 145 144 149 153 158 160 160 157 156 159 161 166 165 169 168 174
276 256 360 273 316 306 293 84 312 291 219 216 211 228 134 224 62 170 140 80 61 64 77 99 113 122 130 139 142 147 149 151 152 152 150 151 154 155 157 156 161 166 174 182
256 199 268 283 327 328 1 26 329 316 212 192 244 98 105 85 61 59 97 94 86 90 84 97 106 116 124 128 139 139 141 143 144 145 146 149 151 150 151 156 165 172 174 176
210 206 265 273 291 283 303 22 344 342 327 301 120 114 113 95 74 43 84 102 106 102 107 109 117 118 114 121 129 137 136 139 139 140 140 141 146 148 153 160 163 158 156 147
203 205 220 264 306 305 354 332 326 305 68 19 32 132 134 122 89 54 78 93 104 109 116 116 124 131 129 122 131 134 132 133 132 133 135 137 141 148 153 153 151 145 142 135
77 141 225 225 242 270 359 324 316 53 314 326 330 139 90 84 98 97 101 102 108 112 119 124 123 129 136 132 126 126 127 125 129 133 134 137 140 144 147 149 150 151 151 145
0 304 44 312 307 316 344 338 40 328 302 295 100 109 104 104 103 100 99 106 115 112 119 120 117 115 121 129 124 113 115 122 129 131 131 131 133 139 146 154 149 148 146 149
25 343 348 25 358 307 327 316 312 310 275 141 115 122 121 115 106 101 98 101 107 114 116 120 123 120 119 121 115 109 112 117 120 122 123 129 133 137 148 154 150 147 146 144
348 6 12 298 358 330 359 3 6 10 123 129 131 127 122 114 115 112 114 109 103 111 116 117 116 113 109 108 103 100 102 105 114 119 122 126 137 144 148 152 151 150 155 165
312 302 341 303 340 296 21 22 32 60 112 124 125 133 125 123 117 119 113 114 118 119 117 115 107 104 104 105 102 102 103 108 118 127 133 137 144 145 154 156 160 167 169 176
342 338 40 45 23 48 43 45 62 62 73 103 115 110 116 128 118 122 118 120 118 113 111 106 104 101 98 96 97 100 102 114 129 129 124 120 137 145 145 161 171 169 170 165